{"data":{"norad_id":58451,"intl_designator":"2023-183Q","name":"STARLINK-30944","alt_names":[],"object_type":"PAYLOAD","status":"ACTIVE","operator":null,"country":"US","launch_date":"2023-11-28","launch_site_code":"AFETR","launch_vehicle":null,"mission":null,"orbit_class":"UNKNOWN","rcs_meters":null,"size_class":null,"mass_kg":null,"dimensions":null,"purposes":["comms"],"wikipedia_slug":null,"has_3d_model":false,"image_url":null,"decayed_at":null,"tle_current":{"epoch":"2026-09-20T09:29:49.658496Z","epoch_age_seconds":155752,"freshness":"FRESH","line1":"1 58451U 23183Q   26263.39571364 -.00004478  00000+0 -15337-3 0  9993","line2":"2 58451  43.0037  21.8854 0001926 271.4607  88.6024 15.27563417156488","mean_motion":15.27563417,"eccentricity":0.0001926,"inclination_deg":43.0037,"raan_deg":21.8854,"arg_perigee_deg":271.4607,"mean_anomaly_deg":88.6024,"bstar":-0.00015337,"rev_number":15648,"period_min":94.267772059378,"perigee_km":481.77727795074,"apogee_km":484.42022596239,"semimajor_km":6861.2357519566,"source":"CELESTRAK","updated_at":"2026-09-21T09:00:33.878339Z"}}}